Location: Beccas
(43.4309°N, 0.1528°E)
Time: 10:43:15
(UTC+00:00)

MOS 1-B Rocket - Pass Details

Date: 15 October 2021
Orbit: 890 x 1605 km, 99.0° (Epoch: 07 December)

Event Time Altitude Azimuth Distance (km) Brightness Sun altitude
Rises 17:51:29 0° 17° (NNE) 4,229 7.1 -7.2°
Reaches altitude 10° 17:54:25 10° 22° (NNE) 3,151 6.4 -7.7°
Maximum altitude 18:01:18 52° 98° (E) 1,303 4.3 -9.0°
Drops below altitude 10° 18:07:12 10° 174° (S) 2,712 6.3 -10.0°
Sets 18:09:34 0° 180° (S) 3,596 7.0 -10.5°
